FW0532 Weather Reports


Display with metric or nautical units.
time (UTC)temp
F
wind
direction
speed
MPH
gust
MPH
rain 1hr
in
rain 24hr
in
rain mn
in
humidity
%
barometer
mb
20260901120328 74 189 0.0 2.0 0.00 0.00 0.00 89 1016.9
20260901115828 73 189 0.0 2.0 0.00 0.00 0.00 90 1016.7
20260901115328 73 189 0.0 2.0 0.00 0.00 0.00 90 1016.8
20260901114828 73 189 2.0 2.0 0.00 0.00 0.00 90 1016.8
20260901114328 73 189 0.0 2.0 0.00 0.00 0.00 90 1016.7
20260901113827 73 189 0.0 2.0 0.00 0.00 0.00 90 1016.7
20260901113327 73 189 2.0 2.0 0.00 0.00 0.00 90 1016.5
20260901112827 72 189 0.0 2.0 0.00 0.00 0.00 90 1016.4
20260901112327 72 189 0.0 2.0 0.00 0.00 0.00 91 1016.3
20260901111327 71 189 0.0 0.0 0.00 0.00 0.00 92 1016.3
20260901110827 71 189 0.0 0.0 0.00 0.00 0.00 91 1016.3
20260901110326 71 189 0.0 1.0 0.00 0.00 0.00 92 1016.3
20260901105827 71 189 0.0 1.0 0.00 0.00 0.00 92 1016.3
20260901105326 71 189 0.0 0.0 0.00 0.00 0.00 91 1016.3
20260901104326 71 189 0.0 0.0 0.00 0.00 0.00 90 1016.3
20260901103326 73 189 0.0 3.0 0.00 0.00 0.00 90 1016.2
20260901102825 73 189 0.0 3.0 0.00 0.00 0.00 89 1016.1
20260901102325 73 189 0.0 2.0 0.00 0.00 0.00 89 1016.0
20260901100324 73 189 0.0 2.0 0.00 0.00 0.00 89 1015.8
20260901095324 73 189 0.0 3.0 0.00 0.00 0.00 89 1016.1
20260901094824 73 189 1.0 3.0 0.00 0.00 0.00 89 1016.0
20260901094325 74 189 0.0 3.0 0.00 0.00 0.00 89 1016.1
20260901093824 74 189 0.0 3.0 0.00 0.00 0.00 89 1016.1
20260901093324 74 189 0.0 3.0 0.00 0.00 0.00 89 1016.0
20260901092824 74 189 0.0 3.0 0.00 0.00 0.00 89 1016.1
20260901092324 74 189 0.0 3.0 0.00 0.00 0.00 89 1016.1
20260901091823 73 189 0.0 3.0 0.00 0.00 0.00 89 1016.0
20260901091323 73 189 2.0 3.0 0.00 0.00 0.00 89 1016.0
20260901090823 73 189 0.0 3.0 0.00 0.00 0.00 89 1016.0
20260901090323 73 189 0.0 3.0 0.00 0.00 0.00 89 1016.0
20260901085823 73 189 0.0 0.0 0.00 0.00 0.00 89 1015.8
20260901085323 73 189 0.0 0.0 0.00 0.00 0.00 89 1015.9
20260901084822 73 189 0.0 3.0 0.00 0.00 0.00 89 1015.9
20260901084322 74 189 0.0 3.0 0.00 0.00 0.00 89 1015.8
20260901083322 74 189 0.0 2.0 0.00 0.00 0.00 88 1015.8
20260901082322 74 189 0.0 0.0 0.00 0.00 0.00 88 1015.8
20260901081821 74 189 0.0 0.0 0.00 0.00 0.00 88 1015.8
20260901081321 74 189 0.0 0.0 0.00 0.00 0.00 88 1015.8
20260901080821 74 189 0.0 4.0 0.00 0.00 0.00 88 1015.8
20260901080322 74 189 0.0 5.0 0.00 0.00 0.00 89 1015.8
20260901075821 74 254 1.0 5.0 0.00 0.00 0.00 89 1015.6
20260901075321 74 238 0.0 3.0 0.00 0.00 0.00 89 1015.8
20260901074820 74 237 0.0 3.0 0.00 0.00 0.00 89 1015.7
20260901074320 74 205 1.0 3.0 0.00 0.00 0.00 90 1015.7
20260901073820 74 205 0.0 4.0 0.00 0.00 0.00 90 1015.7
20260901072820 74 210 3.0 4.0 0.00 0.00 0.00 91 1015.6
20260901072320 73 201 2.0 4.0 0.00 0.00 0.00 91 1015.5
20260901071820 73 207 2.0 3.0 0.00 0.00 0.00 92 1015.6
20260901071320 72 207 0.0 2.0 0.00 0.00 0.00 92 1015.6
20260901070819 72 207 0.0 1.0 0.00 0.00 0.00 92 1015.7
20260901070349 72 207 0.0 0.0 0.00 0.00 0.00 92 1015.7
20260901065849 72 207 0.0 0.0 0.00 0.00 0.00 91 1015.8
20260901065349 73 207 0.0 0.0 0.00 0.00 0.00 91 1015.8
20260901064849 73 207 0.0 1.0 0.00 0.00 0.00 91 1015.9
20260901064349 73 207 0.0 2.0 0.00 0.00 0.00 92 1015.8
20260901063348 73 207 0.0 0.0 0.00 0.00 0.00 92 1015.9
20260901062848 73 207 0.0 1.0 0.00 0.00 0.00 91 1015.8
20260901062349 73 207 0.0 1.0 0.00 0.00 0.00 91 1015.7
20260901061848 73 207 0.0 0.0 0.00 0.00 0.00 90 1015.9
20260901061318 74 207 0.0 0.0 0.00 0.00 0.00 89 1016.0
20260901060847 74 207 0.0 0.0 0.00 0.00 0.00 88 1016.1
20260901055847 75 207 0.0 1.0 0.00 0.00 0.00 87 1016.0
20260901055347 76 207 0.0 2.0 0.00 0.00 0.00 86 1016.1
20260901054346 77 207 0.0 4.0 0.00 0.00 0.00 85 1015.9
20260901053846 77 207 0.0 4.0 0.00 0.00 0.00 85 1015.9
20260901053346 77 242 1.0 5.0 0.00 0.00 0.00 85 1015.8
20260901052846 77 226 4.0 6.0 0.00 0.00 0.00 84 1015.6
20260901052346 78 198 3.0 6.0 0.00 0.00 0.00 84 1015.7
20260901051846 78 184 4.0 6.0 0.00 0.00 0.00 84 1015.6
20260901051346 78 202 2.0 6.0 0.00 0.00 0.00 84 1015.6
20260901050846 78 202 3.0 10.0 0.00 0.00 0.00 83 1015.4
20260901050345 78 177 1.0 10.0 0.00 0.00 0.00 83 1015.5
20260901045845 78 231 3.0 10.0 0.00 0.00 0.00 83 1015.6
20260901045345 78 196 2.0 11.0 0.00 0.00 0.00 83 1015.3
20260901044845 78 207 4.0 11.0 0.00 0.00 0.00 83 1015.3
20260901044345 78 225 8.0 10.0 0.00 0.00 0.00 83 1015.6
20260901043845 78 207 4.0 12.0 0.00 0.00 0.00 83 1015.5
20260901043345 78 215 6.0 12.0 0.00 0.00 0.00 83 1015.7
20260901042344 78 210 4.0 6.0 0.00 0.00 0.00 83 1016.0
20260901041844 78 205 3.0 6.0 0.00 0.00 0.00 82 1016.0
20260901041344 78 184 2.0 7.0 0.00 0.00 0.00 83 1016.0
20260901040844 78 186 3.0 7.0 0.00 0.00 0.00 83 1016.0
20260901040343 78 247 3.0 7.0 0.00 0.00 0.00 83 1015.9
20260901035843 78 180 3.0 10.0 0.00 0.00 0.00 82 1016.0
20260901035343 79 194 0.0 10.0 0.00 0.00 0.00 82 1016.1
20260901034843 78 207 6.0 9.0 0.00 0.00 0.00 83 1015.9
20260901034343 78 257 3.0 11.0 0.00 0.00 0.00 83 1015.7
20260901033843 78 196 7.0 11.0 0.00 0.00 0.00 83 1015.7
20260901033343 78 205 6.0 9.0 0.00 0.00 0.00 84 1015.9
20260901032843 78 228 6.0 8.0 0.00 0.00 0.00 84 1016.1
20260901032342 78 201 5.0 6.0 0.00 0.00 0.00 84 1016.2
20260901031842 77 217 4.0 6.0 0.00 0.00 0.00 84 1016.2
20260901031342 77 236 2.0 5.0 0.00 0.00 0.00 84 1016.2
20260901030842 77 213 2.0 5.0 0.00 0.00 0.00 84 1016.2
20260901025342 76 209 3.0 5.0 0.00 0.00 0.00 87 1016.5
20260901024841 75 227 4.0 4.0 0.00 0.00 0.00 89 1016.6
20260901024341 75 217 0.0 0.0 0.00 0.00 0.00 90 1016.6
20260901023841 74 217 0.0 0.0 0.00 0.00 0.00 91 1016.5
20260901023341 74 217 0.0 0.0 0.00 0.00 0.00 92 1016.5
20260901022841 74 217 0.0 0.0 0.00 0.00 0.00 91 1016.5
20260901022341 74 217 0.0 0.0 0.00 0.00 0.00 92 1016.6
20260901021841 74 217 0.0 0.0 0.00 0.00 0.00 92 1016.7
20260901021340 74 217 0.0 0.0 0.00 0.00 0.00 91 1016.6
20260901020840 75 217 0.0 0.0 0.00 0.00 0.00 91 1016.8
20260901020340 75 217 0.0 0.0 0.00 0.00 0.00 91 1016.8
20260901015839 75 217 0.0 0.0 0.00 0.00 0.00 91 1016.5
20260901015339 75 217 0.0 0.0 0.00 0.00 0.00 91 1016.5
20260901014840 75 217 0.0 0.0 0.00 0.00 0.00 91 1016.5
20260901013339 76 217 0.0 0.0 0.00 0.00 0.00 90 1016.6
20260901012839 76 217 0.0 0.0 0.00 0.00 0.00 90 1016.5
20260901012338 76 217 0.0 0.0 0.00 0.00 0.00 90 1016.5
20260901011839 76 217 0.0 0.0 0.00 0.00 0.00 90 1016.4
20260901011338 76 217 0.0 0.0 0.00 0.00 0.00 90 1016.5
20260901010838 76 217 0.0 0.0 0.00 0.00 0.00 90 1016.3
20260901010338 76 217 0.0 0.0 0.00 0.00 0.00 90 1016.3
20260901005838 76 217 0.0 0.0 0.00 0.00 0.00 90 1016.0
20260901005338 76 217 0.0 0.0 0.00 0.00 0.00 89 1016.1
20260901004837 76 217 0.0 0.0 0.00 0.00 0.00 89 1016.0
20260901004338 76 217 0.0 0.0 0.00 0.00 0.00 89 1016.0
20260901003838 76 217 0.0 0.0 0.00 0.00 0.00 89 1015.9
20260901003337 76 217 0.0 0.0 0.00 0.00 0.00 89 1015.9
20260901002837 77 217 0.0 0.0 0.00 0.00 0.00 89 1015.9
20260901002337 77 217 0.0 0.0 0.00 0.00 0.00 89 1015.9
20260901001837 77 217 0.0 0.0 0.00 0.00 0.00 89 1015.9
20260901001337 77 217 0.0 0.0 0.00 0.00 0.00 88 1015.8
20260901000336 78 217 0.0 0.0 0.00 0.00 0.00 88 1016.0
20260831235836 78 217 0.0 0.0 0.00 0.00 0.00 87 1015.8
20260831235336 78 217 0.0 0.0 0.00 0.00 0.00 87 1015.9
20260831234836 79 217 0.0 0.0 0.00 0.00 0.00 87 1015.9
20260831234336 79 217 0.0 0.0 0.00 0.00 0.00 86 1015.9
20260831233836 80 217 0.0 0.0 0.00 0.00 0.00 84 1015.9
20260831233335 80 217 0.0 0.0 0.00 0.00 0.00 84 1015.8
20260831232835 81 217 0.0 2.0 0.00 0.00 0.00 83 1015.8
20260831232335 81 217 0.0 2.0 0.00 0.00 0.00 82 1015.8
20260831231835 82 217 1.0 2.0 0.00 0.00 0.00 81 1015.7
20260831230834 83 217 0.0 3.0 0.00 0.00 0.00 77 1015.7
20260831230334 84 217 0.0 4.0 0.00 0.00 0.00 79 1015.9
20260831225834 84 220 0.0 4.0 0.00 0.00 0.00 75 1015.7
20260831225334 85 185 2.0 3.0 0.00 0.00 0.00 74 1015.6
20260831224835 86 200 1.0 4.0 0.00 0.00 0.00 70 1015.6
20260831224334 86 186 0.0 5.0 0.00 0.00 0.00 70 1015.6
20260831223833 87 219 4.0 5.0 0.00 0.00 0.00 69 1015.7
20260831223333 87 168 3.0 5.0 0.00 0.00 0.00 68 1015.7
20260831222833 87 182 2.0 6.0 0.00 0.00 0.00 68 1015.6
20260831222333 87 202 3.0 6.0 0.00 0.00 0.00 66 1015.7
20260831221333 87 159 2.0 5.0 0.00 0.00 0.00 65 1015.7
20260831220833 88 257 2.0 6.0 0.00 0.00 0.00 65 1015.5
20260831220333 87 183 1.0 7.0 0.00 0.00 0.00 66 1015.5
20260831215832 87 198 3.0 7.0 0.00 0.00 0.00 64 1015.5
20260831214832 86 179 4.0 10.0 0.00 0.00 0.00 65 1015.3
20260831214332 86 286 4.0 10.0 0.00 0.00 0.00 64 1015.3
20260831213832 86 198 4.0 10.0 0.00 0.00 0.00 66 1015.3
20260831213331 87 186 2.0 12.0 0.00 0.00 0.00 66 1015.4
20260831212832 87 185 3.0 12.0 0.00 0.00 0.00 65 1015.4
20260831212331 87 202 3.0 10.0 0.00 0.00 0.00 65 1015.4
20260831211831 86 233 8.0 10.0 0.00 0.00 0.00 67 1015.1
20260831211331 86 183 5.0 13.0 0.00 0.00 0.00 70 1014.8
20260831210831 86 199 1.0 14.0 0.00 0.00 0.00 70 1014.9
20260831210331 86 203 7.0 15.0 0.00 0.00 0.00 72 1014.8
20260831205831 86 165 9.0 15.0 0.00 0.00 0.00 73 1014.8
20260831205330 86 186 6.0 7.0 0.00 0.00 0.00 75 1015.1
20260831204831 86 219 2.0 6.0 0.00 0.00 0.00 75 1015.8
20260831204330 85 198 4.0 5.0 0.00 0.00 0.00 75 1016.1
20260831203330 85 209 1.0 3.0 0.00 0.00 0.00 77 1016.1
20260831202329 84 217 0.0 4.0 0.00 0.00 0.00 77 1016.2
20260831201829 84 217 1.0 5.0 0.00 0.00 0.00 75 1016.2
20260831201329 84 180 1.0 5.0 0.00 0.00 0.00 74 1016.2
20260831200829 84 199 2.0 5.0 0.00 0.00 0.00 74 1016.2
20260831200329 84 198 2.0 7.0 0.00 0.00 0.00 74 1016.6
20260831195829 85 217 1.0 7.0 0.00 0.00 0.00 73 1016.6
20260831195328 85 197 3.0 7.0 0.00 0.00 0.00 73 1016.5
20260831194828 85 196 4.0 6.0 0.00 0.00 0.00 73 1016.7
20260831194328 85 190 1.0 6.0 0.00 0.00 0.00 73 1016.9
20260831193828 85 199 2.0 7.0 0.00 0.00 0.00 73 1016.9
20260831193328 85 184 3.0 7.0 0.00 0.00 0.00 75 1016.9
20260831192828 85 178 3.0 6.0 0.00 0.00 0.00 73 1017.0
20260831192327 85 196 4.0 6.0 0.00 0.00 0.00 73 1017.1
20260831191827 85 233 5.0 5.0 0.00 0.00 0.00 72 1017.4
20260831191327 85 190 2.0 7.0 0.00 0.00 0.00 72 1017.5
20260831190827 85 174 1.0 7.0 0.00 0.00 0.00 72 1017.6
20260831190328 86 293 2.0 7.0 0.00 0.00 0.00 72 1017.6
20260831185827 86 220 3.0 7.0 0.00 0.00 0.00 70 1017.6
20260831185327 86 214 3.0 7.0 0.00 0.00 0.00 73 1017.5
20260831184326 87 202 4.0 7.0 0.00 0.00 0.00 72 1017.6
20260831183326 85 199 4.0 5.0 0.00 0.00 0.00 74 1017.7
20260831182826 85 189 2.0 6.0 0.00 0.00 0.00 73 1017.7
20260831182326 85 194 3.0 6.0 0.00 0.00 0.00 73 1017.7
20260831181825 85 232 1.0 6.0 0.00 0.00 0.00 74 1017.8
20260831181325 85 196 3.0 4.0 0.00 0.00 0.00 74 1017.8
20260831180825 85 196 1.0 5.0 0.00 0.00 0.00 75 1017.9
20260831180325 84 184 1.0 5.0 0.00 0.00 0.00 76 1017.9
20260831175825 84 191 2.0 5.0 0.00 0.00 0.00 77 1018.0
20260831174825 84 225 0.0 3.0 0.00 0.00 0.00 77 1018.1
20260831174325 84 224 1.0 4.0 0.00 0.00 0.00 77 1018.0
20260831173824 84 188 0.0 4.0 0.00 0.00 0.00 77 1018.0
20260831173324 84 246 0.0 3.0 0.00 0.00 0.00 76 1018.0
20260831172824 84 190 1.0 4.0 0.00 0.00 0.00 76 1018.1
20260831172324 84 199 2.0 5.0 0.00 0.00 0.00 75 1018.2
20260831171824 84 176 5.0 5.0 0.00 0.00 0.00 77 1018.1
20260831171323 85 32 2.0 5.0 0.00 0.00 0.00 73 1018.2
20260831170823 85 319 4.0 5.0 0.00 0.00 0.00 73 1018.1
20260831165823 87 152 1.0 6.0 0.00 0.00 0.00 70 1018.1
20260831165323 86 160 2.0 7.0 0.00 0.00 0.00 71 1018.1
20260831164323 85 209 5.0 7.0 0.00 0.00 0.00 75 1018.1
20260831163322 85 215 6.0 6.0 0.00 0.00 0.00 74 1018.2
20260831162822 85 180 1.0 6.0 0.00 0.00 0.00 75 1018.2
20260831162322 85 165 3.0 7.0 0.00 0.00 0.00 74 1018.1
20260831161822 84 193 2.0 10.0 0.00 0.00 0.00 74 1018.2
20260831161322 85 213 2.0 10.0 0.00 0.00 0.00 73 1018.1
20260831160822 86 207 5.0 7.0 0.00 0.00 0.00 73 1018.3
20260831160321 86 267 1.0 9.0 0.00 0.00 0.00 75 1018.3
20260831155821 87 196 4.0 9.0 0.00 0.00 0.00 71 1018.3
20260831155321 86 177 3.0 10.0 0.00 0.00 0.00 73 1018.3
20260831154821 85 67 1.0 10.0 0.00 0.00 0.00 74 1018.2
20260831153821 86 146 5.0 7.0 0.00 0.00 0.00 73 1018.3
20260831153321 86 229 3.0 5.0 0.00 0.00 0.00 73 1018.3
20260831152820 85 203 1.0 6.0 0.00 0.00 0.00 74 1018.1
20260831152320 85 171 1.0 6.0 0.00 0.00 0.00 75 1018.3
20260831151820 85 240 5.0 8.0 0.00 0.00 0.00 74 1018.2
20260831151320 86 177 1.0 8.0 0.00 0.00 0.00 73 1018.3
20260831150820 85 183 3.0 6.0 0.00 0.00 0.00 73 1018.2
20260831150320 85 171 2.0 10.0 0.00 0.00 0.00 74 1018.2
20260831145819 84 248 6.0 10.0 0.00 0.00 0.00 74 1018.1
20260831145319 84 192 2.0 6.0 0.00 0.00 0.00 74 1018.1
20260831144819 84 205 4.0 6.0 0.00 0.00 0.00 74 1018.1
20260831144319 83 233 4.0 8.0 0.00 0.00 0.00 74 1017.9
20260831143319 82 182 2.0 5.0 0.00 0.00 0.00 76 1017.8
20260831142818 81 199 3.0 8.0 0.00 0.00 0.00 79 1017.7
20260831142348 80 199 2.0 8.0 0.00 0.00 0.00 77 1017.6
20260831141848 80 173 4.0 6.0 0.00 0.00 0.00 78 1017.6
20260831141348 79 195 2.0 6.0 0.00 0.00 0.00 79 1017.6
20260831140848 79 227 4.0 6.0 0.00 0.00 0.00 80 1017.6
20260831140347 78 190 2.0 5.0 0.00 0.00 0.00 82 1017.5
20260831135848 78 98 0.0 4.0 0.00 0.00 0.00 82 1017.7
20260831135347 77 218 3.0 4.0 0.00 0.00 0.00 83 1017.7
20260831134847 77 188 2.0 4.0 0.00 0.00 0.00 83 1017.5
20260831134347 76 250 3.0 5.0 0.00 0.00 0.00 84 1017.5
20260831131846 75 267 3.0 5.0 0.00 0.00 0.00 86 1017.6
20260831131346 75 244 5.0 5.0 0.00 0.00 0.00 86 1017.4
20260831130346 74 189 4.0 5.0 0.00 0.00 0.00 86 1017.5
20260831125846 74 197 1.0 5.0 0.00 0.00 0.00 87 1017.7
20260831125346 74 184 0.0 5.0 0.00 0.00 0.00 88 1017.6
20260831124845 74 213 4.0 4.0 0.00 0.00 0.00 87 1017.7
20260831123845 73 213 1.0 3.0 0.00 0.00 0.00 89 1017.6
20260831122845 73 213 2.0 2.0 0.00 0.00 0.00 89 1017.4
20260831122346 72 213 0.0 0.0 0.00 0.00 0.00 90 1017.3
20260831121344 72 213 0.0 2.0 0.00 0.00 0.00 91 1017.3
20260831120844 71 213 1.0 4.0 0.00 0.00 0.00 92 1017.2